Regional Weather Roundup
Issued by NWS

Home | Current Version | Previous Version | Graphics & Text | Print | Product List | Glossary On
Versions: 1 2 3 4 5 6 7 8 9 10 11 12 13 14 15 16 17 18 19 20 21 22 23 24 25 26 27 28 29 30 31 32 33 34 35 36 37 38 39 40 41 42 43 44 45 46 47 48 49
000
ASUS45 KTFX 041310
RWRMT
MONTANA REGIONAL WEATHER ROUNDUP
NATIONAL WEATHER SERVICE GREAT FALLS MT
700 AM MDT SAT JUL 04 2015

NOTE: "FAIR" INDICATES FEW OR NO CLOUDS BELOW 12000 FEET WITH NO
SIGNIFICANT WEATHER AND/OR OBSTRUCTIONS TO VISIBILITY.

MTZ001>007-043-041400-
WEST OF THE DIVIDE

CITY           SKY/WX    TMP DP  RH WIND       PRES   REMARKS
KALISPELL      SUNNY     58  50  75 CALM      29.84R
MISSOULA       CLEAR     65  46  50 SE6       29.92R
BUTTE          SUNNY     52  38  58 CALM      30.07R
MULLAN PASS    CLEAR     66  32  28 VRB5      30.06S
DEER LODGE       N/A     57  45  62 CALM      30.04R
EUREKA           N/A     61  48  63 CALM      29.85R
HAMILTON         N/A     64  43  45 S12       29.94R
RONAN            N/A     57  52  84 CALM      29.91R
$$

MTZ008-052>055-041400-
SOUTHWEST MONTANA

CITY           SKY/WX    TMP DP  RH WIND       PRES   REMARKS
BOZEMAN        SUNNY     59  47  64 SE7       29.98R
DILLON         SUNNY     59  40  49 S9        30.02R
W YELLOWSTONE  MOSUNNY   46  41  81 CALM      30.14R
THREE FORKS      N/A     54  42  63 CALM      29.96R
TWIN BRIDGES     N/A     56  40  55 E5        30.01R
$$

MTZ009-010-012-014-046-048-049-054-041400-
EAST SLOPES AND CENTRAL MONTANA

CITY           SKY/WX    TMP DP  RH WIND       PRES   REMARKS
CUT BANK       SUNNY     60  52  74 N28G35    29.89R
GREAT FALLS    SUNNY     70  43  37 SW10      29.84S
MALMSTROM AFB  SUNNY     69  44  40 SW10      29.84R
HELENA         SUNNY     67  44  43 NW3       29.92S
$$

MTZ011-013-016-021-045-047-050-051-041400-
NORTH CENTRAL MONTANA

CITY           SKY/WX    TMP DP  RH WIND       PRES   REMARKS
HAVRE          SUNNY     63  49  60 SW3       29.74S
LEWISTOWN      SUNNY     63  51  65 SE6       29.88R
CHINOOK          N/A     64  52  63 W3        29.74R
FORT BENTON      N/A     68  46  45 SW8       29.80R
$$

MTZ017>020-022>027-061-062-041400-
NORTHEAST MONTANA

CITY           SKY/WX    TMP DP  RH WIND       PRES   REMARKS
GLASGOW        SUNNY     68  57  68 E8        29.73S
JORDAN           N/A     63  52  67 CALM      29.76F
SIDNEY         SUNNY     66  61  82 CALM      29.77F
WOLF POINT     SUNNY     65  60  84 CALM      29.74S HAZE
PLENTYWOOD       N/A     66  64  94 E5        29.75F
POPLAR           N/A     64  63  94 NE3       29.75S
$$

MTZ028>42-056>058-041400-
SOUTHCENTRAL AND SOUTHEAST MONTANA

CITY           SKY/WX    TMP DP  RH WIND       PRES   REMARKS
BAKER          SUNNY     66  61  84 SE7       29.84S HAZE
BILLINGS       MOSUNNY   66  52  60 SW13      29.87R
LIVINGSTON     SUNNY     58  47  66 NW6       29.96R
MILES CITY     SUNNY     68  61  78 SE7       29.78F
FORSYTH          N/A     70  57  64 CALM      29.78F
LAUREL           N/A     64  49  58 SW6       29.87S
ROUNDUP          N/A     64  50  60 S14       29.77F
$$

REGIONAL REPORTS...DAKOTAS

CITY           SKY/WX    TMP DP  RH WIND       PRES   REMARKS
WILLISTON      SUNNY     70  61  73 S6        29.76F HAZE
MINOT          SUNNY     70  63  78 S8        29.78F HAZE
DICKINSON      SUNNY     67  61  81 S10       29.81F HAZE
BEACH          FAIR      64  64 100 S12       29.82F
CROSBY         FAIR      68  68 100 W5        29.77S FOG
BISMARCK       SUNNY     67  65  93 SE6       29.84F FOG
GRAND FORKS    CLOUDY    65  62  90 S7        29.87S FOG
FARGO          MOSUNNY   68  62  81 S7        29.89F HAZE
BUFFALO SD       N/A     65  61  87 S5        29.79S
RAPID CITY     SUNNY     64  61  90 SE9       29.87F
$$

REGIONAL REPORTS...WYOMING/IDAHO/WASHINGTON

CITY           SKY/WX    TMP DP  RH WIND       PRES   REMARKS
GILLETTE       SUNNY     65  58  78 S5        29.92R
SHERIDAN       SUNNY     64  56  75 CALM      29.89R
BUFFALO WY     SUNNY     70  53  54 W6        29.96R
CODY           SUNNY     68  48  49 CALM      29.98S
YELLOWSTONE LA   N/A     47  41  80 CALM      30.23R
IDAHO FALLS    PTCLDY    57  51  80 CALM      29.98R
SALMON         PTCLDY    54  46  76 CALM      30.00R
BOISE          CLEAR     71  38  29 S6        29.85R
SPOKANE        PTCLDY    67  41  38 SE9       29.82R
$$

REGIONAL REPORTS...ALBERTA

CITY           SKY/WX    TMP DP  RH WIND       PRES   REMARKS
EDMONTON       SUNNY     55  41  58 NW9       29.92R
CALGARY        PTSUNNY   61  46  59 NW3       29.97S
LETHBRIDGE     PTSUNNY   61  50  67 N10G20    29.94R
MEDICINE HAT   MOSUNNY   68  52  56 NE14      29.85R
CARDSTON         N/A     57  50  77 NW8         N/A
MILK RIVER       N/A     59  54  82 N17G24      N/A
ONEFOUR          N/A     64  52  63 NW15G22     N/A
$$

REGIONAL REPORTS...SASKATCHEWAN

CITY           SKY/WX    TMP DP  RH WIND       PRES   REMARKS
SWIFT CURRENT  TSTM      63  57  82 N8        29.83R
REGINA         PTSUNNY   66  63  88 NE5       29.74R
SASKATOON      LGT RAIN  64  57  77 N8        29.79S
CYPRESS HILLS    N/A     59  52  77 NE8G17      N/A
ROCKGLEN         N/A     68  57  68 S6          N/A
$$


USA.gov is the U.S. government's official web portal to all federal, state and local government web resources and services.